Wind_Speed
6 12 17 22 26 27 25 19 19 21 22 22 23 24 24 23 22 21 20 19 19 19 19 19 21 22 25 27 29 31 33 35 37 39 41 43 45 48 50 53 56 59 61 63
8 12 15 19 22 23 22 21 22 24 25 25 25 24 23 22 20 19 18 18 18 18 18 19 21 24 26 28 30 32 34 36 38 40 42 45 47 49 52 55 58 60 62 63
11 12 14 16 18 19 19 21 23 22 20 20 21 21 21 20 19 18 17 17 17 18 19 21 23 25 28 29 31 33 35 37 39 42 44 46 48 51 54 57 59 61 62 64
11 12 13 16 17 18 19 19 19 19 20 19 19 19 18 18 17 17 17 17 18 19 21 23 25 27 28 30 31 33 36 38 41 43 45 48 51 53 56 58 59 61 63 65
10 10 12 14 15 16 19 21 20 19 19 18 18 17 17 17 18 18 18 19 20 21 22 24 25 26 28 30 32 35 37 40 42 44 47 50 53 55 57 58 59 62 65 69
9 10 11 12 14 15 16 17 17 17 17 16 16 15 15 18 19 19 19 19 20 21 22 24 25 26 29 31 34 36 38 41 43 46 49 51 53 55 56 58 60 64 68 73
9 9 10 11 12 13 14 15 16 16 16 16 16 16 17 17 17 18 19 19 20 21 22 24 25 28 30 32 35 37 39 42 45 48 50 52 53 55 56 59 62 67 72 77
10 10 10 11 11 12 13 14 14 15 15 15 15 15 15 16 16 17 17 18 19 20 22 24 27 29 31 33 36 39 41 44 46 49 50 51 53 55 58 61 65 70 75 81
13 13 11 11 12 12 12 13 13 13 13 13 13 13 14 14 14 15 16 17 19 21 24 26 28 30 32 35 38 40 43 45 47 49 50 51 53 56 60 65 69 74 80 85
14 14 13 13 13 13 13 13 12 12 12 12 12 12 12 13 13 14 16 18 20 22 24 27 29 32 34 37 39 41 44 45 47 48 50 52 56 60 64 69 74 79 84 89
15 15 15 14 14 14 13 13 12 11 11 11 11 11 11 12 13 14 16 18 21 24 26 29 31 33 36 38 40 42 44 45 47 48 51 54 59 63 68 73 79 84 88 92
15 16 16 16 15 14 13 12 11 11 10 10 10 10 11 12 13 15 18 20 23 26 28 30 32 34 36 39 41 43 44 45 47 49 53 57 61 67 73 78 83 88 92 94
16 16 16 16 15 15 14 13 11 10 10 9 9 10 11 13 15 18 21 23 25 27 29 31 33 35 38 40 41 43 44 46 48 52 56 60 65 70 75 80 85 90 93 93
16 16 17 17 16 16 15 14 12 11 10 10 11 12 14 17 19 22 24 26 28 29 31 33 35 37 39 40 42 43 45 48 51 55 59 64 69 74 78 82 86 89 90 88
16 16 16 16 16 16 15 14 12 11 11 12 14 16 19 21 23 25 26 28 29 30 32 34 36 38 39 41 42 44 47 50 54 58 63 68 73 77 81 85 88 88 85 77
17 17 17 16 16 15 15 14 14 13 14 16 19 21 23 25 26 27 28 29 30 31 33 35 37 38 40 42 43 46 49 53 58 62 67 72 76 80 84 87 87 83 76 68
18 18 18 17 17 18 18 18 18 18 20 22 24 26 26 27 28 28 29 30 31 32 34 36 37 39 41 43 45 49 52 57 62 67 71 75 79 83 86 86 82 75 67 61
19 19 19 20 20 20 21 21 22 23 25 26 27 28 28 28 28 29 30 31 32 34 35 37 38 40 42 45 48 52 56 61 66 70 74 78 82 85 85 81 74 66 59 53
21 21 22 22 23 23 24 25 26 27 28 28 28 28 28 28 29 29 30 31 33 34 36 37 39 41 44 47 51 56 60 65 69 73 77 81 84 84 80 73 65 58 52 43
22 23 23 24 25 25 26 27 28 28 28 28 28 28 28 28 29 30 31 32 34 35 36 38 40 43 47 51 55 59 64 68 72 76 80 83 83 79 72 65 58 51 42 33
23 24 25 25 26 27 27 28 28 28 28 28 28 28 28 29 29 30 31 33 34 35 37 40 43 47 51 55 59 63 67 71 75 79 81 82 78 71 64 57 50 41 31 22
23 23 24 25 25 26 26 26 27 27 27 27 27 27 28 28 29 30 32 33 35 37 40 43 46 50 54 58 63 67 71 74 78 80 81 77 71 63 56 50 41 31 21 12
21 22 22 23 24 25 25 25 25 25 25 26 26 27 28 28 29 30 32 34 36 39 43 46 50 54 58 62 66 70 73 77 79 80 76 70 63 56 49 40 30 20 11 4
21 21 22 23 23 23 23 23 24 24 25 25 26 27 27 28 29 31 34 36 39 43 46 50 54 58 62 65 69 72 76 78 79 75 69 62 56 49 40 30 20 10 3 3
21 21 22 22 22 23 23 23 24 24 24 25 25 26 27 29 31 34 37 40 43 46 50 53 57 61 65 68 72 75 77 78 74 67 60 54 48 39 29 19 9 1 5 9
22 22 22 22 22 22 22 23 23 23 23 24 25 27 29 32 34 37 40 43 46 50 54 57 61 64 67 71 74 76 76 72 65 59 53 47 39 29 19 8 1 7 12 14
22 22 22 22 22 22 22 22 22 23 24 26 28 30 33 35 38 40 43 47 50 54 57 60 63 67 70 72 75 75 70 63 56 51 45 38 29 19 8 2 10 14 16 17
Wind_Direction
164 186 194 197 198 197 191 179 175 168 175 181 183 185 188 191 195 200 206 213 222 231 240 247 254 261 267 272 276 281 284 287 290 292 293 295 297 298 299 301 302 304 305 307
137 162 174 185 190 191 182 171 160 161 168 175 180 183 187 191 195 201 209 218 227 237 245 253 261 267 272 277 281 284 287 289 292 293 295 297 298 300 301 303 304 306 307 308
122 145 157 168 175 173 164 154 155 163 172 175 178 184 190 195 201 209 217 226 235 244 253 262 268 273 277 281 284 287 289 291 293 295 296 298 299 301 302 304 306 307 307 308
129 147 159 164 172 178 181 181 182 184 185 186 189 194 199 204 211 218 226 235 245 254 262 268 272 276 280 283 286 288 290 292 294 296 297 299 300 302 304 306 307 307 309 310
147 157 161 169 175 182 188 193 197 198 197 198 201 205 209 217 224 232 240 248 255 261 266 271 275 279 282 284 287 289 291 293 295 296 298 300 302 304 306 307 308 309 311 312
164 162 165 171 178 183 191 198 203 207 208 209 214 217 220 227 233 241 249 255 260 265 270 274 277 280 283 286 288 290 292 293 295 297 299 301 303 305 307 308 310 311 313 313
179 175 173 179 184 191 197 202 205 210 214 217 221 224 229 235 240 246 252 257 262 268 272 276 279 282 285 287 289 291 292 294 296 299 301 303 305 306 308 310 311 313 314 315
193 193 195 194 198 203 207 209 211 213 218 222 225 228 233 239 245 250 255 261 266 271 275 279 282 284 287 288 290 292 294 296 299 301 303 304 306 308 310 311 313 314 316 317
202 204 204 207 208 211 213 214 214 215 218 221 225 229 233 239 246 254 261 267 272 276 280 283 285 286 288 290 292 294 297 299 301 303 304 306 308 310 311 313 314 316 317 318
212 212 212 209 210 212 213 213 214 217 220 223 226 230 235 243 252 260 267 273 278 281 283 285 286 288 290 293 295 297 299 301 303 305 307 308 310 312 313 315 316 317 318 319
211 213 214 213 214 212 210 210 212 217 222 225 229 234 242 252 261 268 273 277 281 284 286 287 289 291 293 295 297 299 301 303 305 307 309 311 313 314 316 317 318 319 320 321
213 214 215 215 213 210 208 208 213 218 221 225 232 244 255 263 269 275 280 283 285 287 288 289 291 292 294 297 299 302 303 305 307 309 311 313 315 317 318 319 320 321 322 322
216 217 214 210 209 207 207 212 215 219 226 235 245 256 266 275 279 283 286 288 289 290 290 291 293 295 297 300 302 304 306 307 309 311 313 315 317 318 319 320 321 322 323 323
215 214 210 209 209 209 212 214 219 227 236 247 259 269 278 282 286 288 290 291 292 292 292 294 296 298 300 302 304 306 308 309 312 314 316 317 318 319 321 322 322 323 323 324
212 210 208 208 208 209 212 217 225 234 249 264 274 280 284 287 289 291 292 293 293 293 295 297 299 301 303 305 307 308 310 312 314 316 317 319 320 321 322 323 323 324 324 324
213 211 208 207 209 215 222 230 240 252 266 277 282 285 288 290 291 292 293 294 294 296 297 299 301 303 306 307 309 311 313 315 316 318 319 320 321 322 323 324 324 325 325 325
213 212 213 217 223 229 237 247 256 266 274 280 284 286 289 290 292 293 294 294 296 297 299 302 304 306 308 310 312 313 315 316 318 319 320 321 322 323 324 324 325 325 325 325
218 219 223 229 234 241 250 258 265 271 275 279 283 285 288 290 291 292 294 295 297 299 301 304 306 308 310 312 313 315 316 318 319 320 322 322 323 323 324 325 325 325 326 326
227 231 235 239 245 251 257 262 267 272 275 278 282 285 287 289 291 292 294 296 299 301 304 306 308 310 312 313 315 316 318 319 320 322 322 323 323 324 324 325 326 326 326 326
239 242 245 249 253 257 262 266 269 272 275 279 282 285 287 289 291 293 296 298 301 303 306 308 310 312 313 315 316 317 319 320 321 322 323 323 324 324 325 325 326 326 326 327
247 249 252 255 258 261 264 267 270 273 276 280 283 286 288 290 293 295 298 300 303 305 308 310 311 313 314 316 317 319 320 321 322 322 323 323 324 325 325 325 326 326 327 328
252 253 255 258 260 262 265 269 272 275 278 282 284 287 289 292 295 297 300 302 305 307 309 311 312 314 315 317 319 320 321 322 322 322 323 324 324 325 325 326 326 327 328 332
254 255 257 259 261 264 267 270 274 277 280 283 286 288 291 294 297 299 302 304 306 308 310 311 313 315 317 318 320 321 322 322 322 323 324 324 324 325 325 326 326 326 329 345
256 257 259 261 263 266 269 273 276 279 282 285 287 290 293 296 298 300 303 305 307 309 311 313 315 316 318 319 321 321 322 322 323 323 324 324 324 325 325 325 324 325 341 119
256 258 259 262 265 268 272 275 278 280 283 286 289 292 294 297 300 302 305 306 308 310 313 315 316 317 319 320 321 321 322 322 323 323 324 324 325 325 325 324 323 337 136 134
256 257 260 263 267 270 273 275 278 281 284 287 290 293 296 299 301 304 306 308 310 312 314 316 317 318 320 321 321 321 322 323 323 324 324 325 325 325 325 323 152 142 139 135
257 260 263 266 268 271 273 276 280 284 287 290 292 295 298 300 302 305 307 309 311 313 315 316 318 319 320 320 321 322 322 323 323 324 325 325 325 325 323 149 143 142 139 135
Height
5565 5566 5568 5571 5574 5577 5582 5589 5597 5606 5614 5622 5629 5635 5641 5646 5651 5656 5661 5665 5668 5671 5674 5676 5677 5678 5677 5677 5676 5674 5672 5669 5666 5663 5659 5655 5650 5645 5639 5633 5626 5619 5611 5603
5568 5569 5571 5574 5577 5581 5585 5591 5598 5606 5614 5620 5627 5633 5638 5644 5648 5653 5657 5660 5663 5666 5668 5670 5670 5670 5670 5669 5667 5665 5663 5660 5657 5653 5649 5644 5640 5634 5628 5621 5613 5605 5597 5589
5572 5574 5576 5579 5581 5585 5589 5595 5602 5609 5616 5621 5627 5632 5637 5641 5646 5650 5653 5656 5658 5660 5662 5663 5663 5663 5662 5660 5659 5656 5654 5651 5647 5643 5639 5634 5629 5623 5616 5608 5601 5592 5583 5575
5577 5579 5581 5585 5586 5590 5594 5599 5604 5610 5615 5621 5625 5630 5635 5639 5642 5646 5649 5651 5653 5654 5655 5656 5655 5655 5654 5652 5650 5648 5645 5641 5638 5633 5629 5624 5618 5611 5604 5596 5587 5579 5569 5560
5580 5582 5584 5587 5590 5593 5597 5601 5606 5610 5615 5619 5623 5628 5632 5635 5638 5641 5643 5646 5647 5648 5648 5648 5648 5647 5645 5644 5642 5639 5636 5632 5628 5624 5619 5613 5606 5599 5592 5583 5574 5565 5555 5544
5582 5584 5586 5590 5592 5594 5599 5602 5606 5609 5613 5617 5621 5626 5629 5631 5633 5636 5638 5640 5641 5641 5641 5641 5640 5639 5638 5636 5633 5630 5627 5623 5619 5614 5608 5601 5595 5587 5579 5571 5562 5552 5541 5529
5583 5585 5588 5591 5593 5596 5601 5603 5605 5608 5611 5615 5618 5622 5624 5626 5629 5631 5632 5633 5634 5634 5634 5634 5633 5632 5630 5628 5625 5622 5618 5613 5609 5603 5597 5590 5583 5575 5567 5559 5550 5540 5529 5515
5583 5586 5590 5590 5592 5596 5598 5600 5603 5606 5609 5612 5615 5617 5620 5622 5624 5625 5627 5627 5628 5628 5628 5627 5626 5624 5622 5619 5616 5613 5608 5604 5598 5592 5586 5579 5571 5563 5555 5546 5536 5525 5514 5500
5583 5586 5587 5589 5591 5594 5596 5598 5601 5603 5606 5608 5611 5613 5615 5617 5619 5620 5621 5622 5622 5621 5621 5619 5618 5616 5614 5611 5607 5603 5598 5593 5587 5581 5574 5567 5559 5551 5542 5532 5522 5511 5498 5484
5580 5582 5584 5587 5589 5591 5594 5596 5598 5601 5603 5605 5608 5609 5611 5613 5614 5615 5616 5616 5615 5615 5614 5612 5610 5608 5605 5602 5598 5593 5588 5583 5576 5570 5563 5555 5547 5538 5529 5518 5507 5494 5481 5467
5577 5580 5582 5584 5586 5589 5591 5594 5596 5598 5600 5603 5604 5606 5608 5609 5610 5610 5611 5610 5610 5608 5607 5605 5602 5600 5597 5593 5588 5583 5578 5572 5566 5559 5552 5544 5535 5525 5515 5503 5489 5476 5462 5446
5575 5577 5580 5582 5584 5587 5589 5592 5594 5596 5598 5600 5601 5603 5604 5605 5605 5606 5605 5604 5603 5601 5599 5597 5594 5591 5588 5583 5579 5573 5568 5562 5555 5548 5541 5533 5523 5512 5499 5486 5471 5455 5439 5424
5572 5574 5577 5579 5582 5584 5587 5590 5592 5594 5596 5597 5599 5600 5600 5601 5601 5600 5599 5598 5596 5594 5592 5589 5586 5582 5578 5574 5569 5563 5557 5551 5544 5537 5529 5520 5510 5500 5488 5472 5454 5436 5420 5404
5569 5571 5574 5577 5579 5582 5585 5587 5589 5591 5593 5594 5595 5596 5596 5595 5595 5594 5592 5591 5588 5586 5583 5580 5577 5573 5569 5564 5559 5553 5547 5541 5533 5525 5516 5507 5496 5484 5471 5458 5443 5425 5405 5388
5566 5569 5572 5574 5577 5579 5582 5584 5586 5588 5589 5590 5590 5590 5590 5589 5588 5586 5585 5583 5580 5578 5575 5571 5568 5563 5559 5554 5548 5543 5536 5529 5521 5513 5503 5492 5481 5468 5454 5439 5424 5409 5393 5377
5564 5566 5569 5572 5574 5576 5578 5580 5582 5583 5584 5584 5584 5584 5583 5582 5580 5578 5577 5574 5572 5569 5566 5562 5558 5554 5549 5544 5538 5532 5525 5517 5509 5499 5489 5477 5465 5451 5437 5422 5407 5392 5378 5365
5561 5563 5566 5568 5571 5572 5574 5576 5577 5578 5578 5578 5577 5576 5575 5574 5572 5570 5568 5566 5563 5560 5557 5553 5549 5544 5539 5534 5528 5521 5513 5505 5496 5485 5474 5462 5448 5435 5421 5406 5391 5377 5364 5352
5557 5560 5562 5564 5566 5567 5569 5570 5571 5571 5571 5570 5569 5568 5567 5566 5564 5562 5560 5557 5554 5551 5547 5544 5539 5534 5529 5523 5517 5509 5501 5492 5482 5471 5459 5446 5432 5418 5404 5390 5376 5364 5353 5342
5553 5555 5557 5559 5561 5562 5563 5563 5564 5563 5563 5562 5561 5560 5559 5557 5555 5554 5551 5549 5545 5542 5538 5534 5530 5525 5519 5513 5506 5498 5489 5479 5468 5455 5443 5430 5416 5402 5388 5375 5363 5353 5343 5335
5548 5550 5551 5553 5554 5555 5556 5556 5555 5555 5555 5554 5553 5552 5551 5549 5547 5545 5543 5540 5537 5533 5529 5525 5520 5515 5508 5502 5494 5485 5475 5464 5453 5440 5427 5414 5401 5387 5374 5363 5353 5343 5335 5328
5542 5543 5545 5546 5547 5547 5548 5548 5548 5547 5547 5546 5545 5544 5543 5541 5539 5537 5534 5531 5528 5524 5520 5515 5510 5504 5497 5490 5481 5471 5461 5449 5437 5425 5412 5399 5386 5373 5361 5351 5343 5335 5329 5324
5535 5536 5537 5539 5539 5540 5540 5540 5540 5540 5539 5538 5538 5536 5535 5533 5531 5528 5526 5523 5519 5515 5511 5505 5500 5493 5485 5477 5467 5457 5446 5435 5422 5409 5396 5383 5371 5360 5351 5342 5334 5328 5324 5321
5529 5530 5530 5531 5532 5532 5533 5533 5533 5532 5532 5531 5530 5529 5527 5525 5523 5520 5517 5514 5510 5506 5501 5495 5488 5481 5473 5464 5454 5443 5432 5420 5407 5394 5381 5369 5358 5349 5341 5333 5327 5323 5321 5319
5522 5523 5524 5524 5525 5525 5526 5526 5525 5525 5524 5523 5522 5521 5519 5517 5514 5512 5508 5505 5501 5496 5490 5484 5476 5468 5460 5450 5440 5429 5417 5405 5392 5379 5367 5356 5347 5339 5332 5326 5322 5320 5319 5319
5515 5516 5517 5517 5518 5518 5518 5518 5518 5517 5517 5516 5514 5513 5511 5509 5506 5503 5499 5495 5490 5485 5479 5472 5464 5455 5446 5436 5425 5414 5402 5389 5377 5365 5355 5346 5337 5330 5324 5321 5318 5318 5318 5319
5508 5509 5510 5510 5511 5511 5511 5511 5510 5510 5509 5508 5506 5505 5503 5500 5497 5493 5489 5485 5479 5473 5467 5459 5451 5442 5432 5422 5410 5399 5387 5375 5363 5353 5344 5336 5329 5323 5319 5317 5317 5318 5319 5321
5501 5502 5502 5503 5503 5503 5503 5503 5503 5502 5501 5500 5498 5496 5494 5491 5487 5483 5479 5474 5468 5461 5454 5446 5437 5428 5418 5407 5396 5384 5373 5362 5352 5343 5335 5328 5322 5318 5316 5316 5317 5319 5321 5323